[[{"header":{"parameterUnit":"m.s-1","parameterCategory":1,"la1":30.2991,"la2":30.254,"lo1":-89.0895,"lo2":-89.0444,"dy":0.0017,"dx":0.0017,"nx":28,"ny":28,"refTime":"2023-04-16T21:00:00:Z","depth":0,"parameterNumber":2,"parameterNumberName":"U-component_of_WINDS"},"data":[0,0,0,0,0,0,0,0,0,0,0,0,0,0,0,0,0,0,0,0,0,0,0,0,0,0,0,0,0,0,0,0,0,0,0,0,0,0,0,0,0,0,0,0,0,0,0,0,0,0,0,0,0,0,0,0,0,0,-1.6417,-1.6417,0,-1.6386,-1.6386,-1.6385,-1.6328,-1.6327,-1.6326,-1.6325,-1.6294,-1.6294,-1.6295,0,0,0,0,0,0,0,0,0,0,0,0,0,-1.6428,-1.6428,-1.6417,-1.6417,-1.6416,-1.6386,-1.6386,-1.6385,-1.6328,-1.6327,-1.6325,-1.6324,-1.6294,-1.6294,-1.6295,0,0,0,0,0,0,0,0,0,0,0,0,0,-1.6413,-1.6428,-1.6417,-1.6384,-1.6381,-1.6386,-1.6386,-1.6385,-1.6328,-1.6327,-1.6325,-1.6323,-1.6294,-1.6294,-1.6295,-1.633,0,0,-1.6296,-1.6296,0,0,0,0,0,0,0,0,-1.6414,-1.6413,-1.6389,-1.6386,-1.6383,-1.6359,-1.6378,-1.6367,-1.6329,-1.6348,-1.6324,-1.6323,-1.6317,-1.6315,-1.6313,-1.6329,-1.6327,-1.6296,-1.6296,-1.6296,-1.6296,0,0,0,0,0,0,0,-1.6415,-1.6414,-1.6405,-1.6389,-1.6385,-1.6371,-1.6367,-1.6376,-1.6343,-1.6346,-1.6342,-1.6339,-1.6315,-1.6313,-1.6312,-1.6327,-1.6296,-1.6296,-1.6296,-1.6296,-1.637,-1.6371,0,0,0,0,0,0,-1.6421,-1.6415,-1.6406,-1.6404,-1.6394,-1.6372,-1.6368,-1.6368,-1.6342,-1.6337,-1.6341,-1.6337,-1.6313,-1.6312,-1.6311,-1.635,-1.6296,-1.6296,-1.6297,-1.6368,-1.637,-1.6372,0,0,0,0,0,0,-1.6421,-1.642,-1.6407,-1.6408,-1.6405,-1.6374,-1.6375,-1.6369,-1.6367,-1.6338,-1.6332,-1.6345,-1.6312,-1.631,-1.6326,-1.6348,-1.6296,-1.6297,-1.6366,-1.6369,-1.6371,-1.643,0,0,0,0,0,0,-1.6422,-1.6421,-1.6434,-1.6409,-1.6406,-1.6422,-1.6376,-1.6369,-1.6367,-1.6362,-1.634,-1.6335,-1.6311,-1.6325,-1.6326,-1.6348,-1.6297,-1.6364,-1.6367,-1.637,-1.6426,-1.6434,-1.6441,0,0,0,0,0,-1.6422,-1.6452,-1.6435,-1.6434,-1.6421,-1.6424,-1.6422,-1.6393,-1.6369,-1.6382,-1.6364,-1.6336,-1.6346,-1.6327,-1.6328,-1.635,-1.6362,-1.6366,-1.637,-1.6422,-1.6433,-1.6441,0,0,0,0,0,0,-1.6481,-1.6448,-1.6429,-1.6451,-1.6441,-1.6414,-1.6429,-1.6405,-1.6401,-1.6396,-1.636,-1.6356,-1.6376,-1.6364,-1.6344,-1.6383,-1.635,-1.6354,-1.6389,-1.6399,-1.6407,-1.6409,-1.6297,0,0,0,0,0,-1.6496,-1.6501,-1.6472,-1.6495,-1.649,-1.6461,-1.6461,-1.6439,-1.6427,-1.6422,-1.6405,-1.6395,-1.6395,-1.6397,-1.6396,-1.6424,-1.6418,-1.644,-1.6448,-1.6454,-1.6458,-1.6472,-1.6481,-1.6385,-1.6385,-1.6385,0,0,-1.6528,-1.6511,-1.6516,-1.6506,-1.6495,-1.6501,-1.6457,-1.6465,-1.6469,-1.6424,-1.6437,-1.6424,-1.641,-1.6432,-1.644,-1.6423,-1.6483,-1.6459,-1.6465,-1.6465,-1.6477,-1.6486,-1.6494,-1.6387,-1.6387,-1.6387,0,0,-1.6589,-1.6577,-1.6594,-1.6584,-1.6568,-1.6548,-1.6553,-1.653,-1.6519,-1.6532,-1.6498,-1.6502,-1.6504,-1.6496,-1.6492,-1.655,-1.6524,-1.6551,-1.6591,-1.6605,-1.6613,-1.6619,-1.6639,-1.6647,-1.6555,-1.6555,-1.6555,0,-1.6631,-1.6637,-1.6606,-1.6616,-1.6612,-1.6571,-1.6589,-1.6581,-1.6566,-1.6565,-1.6545,-1.6547,-1.6535,-1.6554,-1.6568,-1.6566,-1.657,-1.6553,-1.6614,-1.662,-1.6626,-1.6645,-1.6652,-1.6558,-1.6558,-1.6557,-1.6557,0,-1.6689,-1.6695,-1.6711,-1.6696,-1.6695,-1.6709,-1.668,-1.6682,-1.6661,-1.6643,-1.6657,-1.6641,-1.6636,-1.6639,-1.6619,-1.6655,-1.6645,-1.662,-1.6586,-1.6639,-1.6656,-1.6663,-1.6563,-1.6562,-1.6561,-1.656,0,0,-1.6785,-1.6754,-1.676,-1.6753,-1.6733,-1.6737,-1.6749,-1.6743,-1.6746,-1.6738,-1.6746,-1.675,-1.6727,-1.6722,-1.6701,-1.6713,-1.676,-1.6687,-1.6686,-1.67,-1.6798,-1.6816,-1.6825,-1.6743,-1.6744,-1.6745,-1.6799,0,-1.6841,-1.6859,-1.6831,-1.6856,-1.686,-1.6822,-1.6832,-1.6821,-1.6805,-1.6807,-1.679,-1.6792,-1.6762,-1.6759,-1.677,-1.6752,-1.6779,-1.6748,-1.675,-1.6751,-1.6754,-1.6834,-1.6852,-1.6904,-1.6805,-1.6807,-1.6807,0,-1.6908,-1.6903,-1.6927,-1.6905,-1.6906,-1.6916,-1.6909,-1.6911,-1.6898,-1.6886,-1.6881,-1.6855,-1.6866,-1.6833,-1.6847,-1.6827,-1.6826,-1.6818,-1.6819,-1.6818,-1.6782,-1.6833,-1.692,-1.6927,-1.6818,-1.6817,-1.6816,0,-1.6975,-1.6973,-1.6988,-1.6983,-1.6958,-1.6966,-1.6956,-1.6941,-1.694,-1.6934,-1.6933,-1.6929,-1.6926,-1.6924,-1.6898,-1.6877,-1.6915,-1.688,-1.6905,-1.6905,-1.6914,-1.6913,-1.7001,-1.6915,-1.6915,-1.6915,-1.6915,0,-1.7039,-1.7056,-1.7017,-1.7026,-1.7044,-1.7012,-1.703,-1.7017,-1.7004,-1.701,-1.6977,-1.6983,-1.6949,-1.6951,-1.6931,-1.6945,-1.6945,-1.6935,-1.6929,-1.6937,-1.6939,-1.6936,-1.6931,-1.6917,-1.6917,-1.6916,-1.6916,0,-1.7116,-1.7091,-1.7104,-1.708,-1.7074,-1.7088,-1.7067,-1.7074,-1.7057,-1.7064,-1.7064,-1.7037,-1.7038,-1.7012,-1.7008,-1.6995,-1.7018,-1.7006,-1.7022,-1.7018,-1.7043,-1.7041,-1.7131,-1.7141,-1.7051,-1.7052,-1.7052,0,-1.7158,-1.717,-1.7147,-1.7148,-1.714,-1.7142,-1.7141,-1.7111,-1.711,-1.7096,-1.7105,-1.7104,-1.7101,-1.7105,-1.7085,-1.7082,-1.7069,-1.7101,-1.7069,-1.7076,-1.7069,-1.7068,-1.7069,-1.7108,-1.7109,-1.711,-1.7111,0,-1.7236,-1.7223,-1.7222,-1.7216,-1.7215,-1.721,-1.7202,-1.7205,-1.7172,-1.7173,-1.7174,-1.7172,-1.7168,-1.7167,-1.716,-1.715,-1.7125,-1.7121,-1.7126,-1.7134,-1.7142,-1.7137,-1.704,-1.7119,-1.7118,-1.7117,-1.7117,-1.7117,-1.7296,-1.7304,-1.7289,-1.7289,-1.728,-1.7274,-1.7279,-1.7262,-1.7262,-1.7256,-1.7239,-1.7243,-1.7229,-1.7218,-1.721,-1.7213,-1.7197,-1.7205,-1.7207,-1.7209,-1.7213,-1.7143,-1.7211,-1.7211,-1.7211,-1.7211,-1.721,0,-1.7371,-1.7359,-1.7359,-1.7349,-1.7349,-1.7326,-1.7316,-1.7318,-1.7321,-1.7311,-1.7309,-1.731,-1.7309,-1.7289,-1.7285,-1.7291,-1.7279,-1.7291,-1.729,-1.7288,-1.7228,-1.7223,-1.73,-1.73,-1.73,-1.73,-1.73,-1.73,-1.741,-1.7422,-1.7408,-1.7416,-1.7405,-1.7408,-1.7404,-1.7398,-1.739,-1.7392,-1.7391,-1.7378,-1.7364,-1.7359,-1.7357,-1.7351,-1.7351,-1.7366,-1.7357,-1.7301,-1.7292,-1.7284,-1.7279,-1.7367,-1.7367,-1.7416,-1.7417,-1.7417]},{"header":{"parameterUnit":"m.s-1","parameterCategory":1,"la1":30.2991,"la2":30.254,"lo1":-89.0895,"lo2":-89.0444,"dy":0.0017,"dx":0.0017,"nx":28,"ny":28,"refTime":"2023-04-16T21:00:00:Z","depth":0,"parameterNumber":3,"parameterNumberName":"V-component_of_WINDS"},"data":[0,0,0,0,0,0,0,0,0,0,0,0,0,0,0,0,0,0,0,0,0,0,0,0,0,0,0,0,0,0,0,0,0,0,0,0,0,0,0,0,0,0,0,0,0,0,0,0,0,0,0,0,0,0,0,0,0,0,-0.8182,-0.8183,0,-0.825,-0.8251,-0.8252,-0.8299,-0.8299,-0.8299,-0.83,-0.8372,-0.8374,-0.8375,0,0,0,0,0,0,0,0,0,0,0,0,0,-0.8093,-0.8095,-0.8182,-0.8183,-0.8184,-0.825,-0.8251,-0.8252,-0.8299,-0.8299,-0.83,-0.83,-0.8372,-0.8373,-0.8375,0,0,0,0,0,0,0,0,0,0,0,0,0,-0.8144,-0.8095,-0.8182,-0.8215,-0.8219,-0.825,-0.8251,-0.8252,-0.8299,-0.8299,-0.83,-0.83,-0.8371,-0.8373,-0.8376,-0.838,0,0,-0.8383,-0.8384,0,0,0,0,0,0,0,0,-0.8141,-0.8147,-0.8209,-0.8213,-0.8217,-0.8267,-0.8247,-0.8295,-0.8298,-0.8268,-0.83,-0.83,-0.8337,-0.8342,-0.8354,-0.8384,-0.8387,-0.8383,-0.8385,-0.8386,-0.8386,0,0,0,0,0,0,0,-0.8137,-0.8144,-0.8209,-0.821,-0.8215,-0.8227,-0.8235,-0.8256,-0.8299,-0.8271,-0.8274,-0.8282,-0.8339,-0.8351,-0.8356,-0.8388,-0.8383,-0.8385,-0.8387,-0.8388,-0.8424,-0.8424,0,0,0,0,0,0,-0.8128,-0.8141,-0.8207,-0.8211,-0.8179,-0.8228,-0.8237,-0.825,-0.8299,-0.8307,-0.8281,-0.8284,-0.8347,-0.8353,-0.8359,-0.8367,-0.8386,-0.8388,-0.8389,-0.8425,-0.8424,-0.8424,0,0,0,0,0,0,-0.8126,-0.8134,-0.8204,-0.8177,-0.8187,-0.8229,-0.8244,-0.8251,-0.8264,-0.8307,-0.8315,-0.8286,-0.8348,-0.8355,-0.8374,-0.837,-0.8389,-0.8391,-0.8426,-0.8425,-0.8424,-0.8383,0,0,0,0,0,0,-0.8124,-0.8133,-0.8135,-0.8177,-0.8188,-0.8218,-0.8243,-0.8252,-0.8267,-0.8271,-0.8313,-0.8321,-0.8349,-0.837,-0.8377,-0.8373,-0.8393,-0.8426,-0.8425,-0.8424,-0.8385,-0.8381,-0.8377,0,0,0,0,0,-0.812,-0.8121,-0.8135,-0.8142,-0.8191,-0.8218,-0.8225,-0.8256,-0.8267,-0.8269,-0.8297,-0.8319,-0.8369,-0.8372,-0.8379,-0.8377,-0.8427,-0.8425,-0.8424,-0.8387,-0.8382,-0.8378,0,0,0,0,0,0,-0.8079,-0.8127,-0.8143,-0.8157,-0.8183,-0.8226,-0.823,-0.825,-0.8274,-0.8277,-0.8315,-0.8324,-0.8339,-0.836,-0.8362,-0.8384,-0.8401,-0.8401,-0.8369,-0.8365,-0.8361,-0.8356,-0.8395,0,0,0,0,0,-0.8071,-0.8088,-0.813,-0.8139,-0.815,-0.8188,-0.82,-0.8222,-0.8251,-0.8262,-0.8291,-0.8318,-0.834,-0.8354,-0.8377,-0.8388,-0.8398,-0.839,-0.8386,-0.8383,-0.8383,-0.839,-0.8387,-0.842,-0.842,-0.842,0,0,-0.8056,-0.8085,-0.8093,-0.8131,-0.8153,-0.817,-0.8197,-0.8214,-0.8226,-0.8265,-0.8284,-0.8306,-0.834,-0.8354,-0.8363,-0.8372,-0.8376,-0.8382,-0.8379,-0.838,-0.8388,-0.8385,-0.8382,-0.842,-0.842,-0.842,0,0,-0.8037,-0.806,-0.8069,-0.8091,-0.8124,-0.8148,-0.815,-0.819,-0.8206,-0.8226,-0.8255,-0.8271,-0.8308,-0.833,-0.8346,-0.8333,-0.8354,-0.8339,-0.832,-0.8326,-0.8324,-0.8321,-0.8316,-0.8314,-0.8339,-0.8339,-0.8339,0,-0.8014,-0.8039,-0.8072,-0.8086,-0.8102,-0.8136,-0.8146,-0.8166,-0.8205,-0.8215,-0.8225,-0.8271,-0.8296,-0.8316,-0.8313,-0.8325,-0.8329,-0.8335,-0.8321,-0.8319,-0.8318,-0.8313,-0.8311,-0.8337,-0.8337,-0.8337,-0.8338,0,-0.8009,-0.8026,-0.803,-0.8065,-0.8081,-0.8094,-0.8128,-0.8141,-0.8161,-0.8184,-0.8203,-0.8234,-0.8263,-0.827,-0.829,-0.8292,-0.8297,-0.8314,-0.8332,-0.8312,-0.8308,-0.8307,-0.8334,-0.8335,-0.8335,-0.8336,0,0,-0.7966,-0.8018,-0.8019,-0.8035,-0.8073,-0.8087,-0.8101,-0.8128,-0.8138,-0.8163,-0.8175,-0.8205,-0.822,-0.8238,-0.8262,-0.8267,-0.8254,-0.8283,-0.8284,-0.8276,-0.8257,-0.8244,-0.8242,-0.8268,-0.8268,-0.8268,-0.8254,0,-0.7952,-0.7977,-0.8006,-0.8021,-0.8037,-0.807,-0.8081,-0.8106,-0.8128,-0.8146,-0.8171,-0.8191,-0.8209,-0.822,-0.8227,-0.8254,-0.8251,-0.8255,-0.828,-0.828,-0.827,-0.824,-0.8226,-0.8212,-0.8253,-0.8253,-0.8253,0,-0.7939,-0.7961,-0.7978,-0.8013,-0.8021,-0.8031,-0.8058,-0.8074,-0.8102,-0.8118,-0.8137,-0.8162,-0.8178,-0.8194,-0.8216,-0.8219,-0.823,-0.8245,-0.8245,-0.8248,-0.8265,-0.8242,-0.8208,-0.8206,-0.8251,-0.8251,-0.8251,0,-0.7905,-0.7939,-0.7953,-0.7966,-0.8008,-0.8014,-0.8032,-0.8062,-0.8076,-0.8099,-0.8108,-0.8134,-0.8148,-0.8167,-0.8198,-0.8206,-0.8216,-0.8235,-0.823,-0.8229,-0.823,-0.823,-0.8198,-0.8239,-0.8239,-0.8239,-0.8239,0,-0.7886,-0.7895,-0.7938,-0.7947,-0.7957,-0.799,-0.8,-0.8021,-0.8046,-0.806,-0.809,-0.8102,-0.8142,-0.8159,-0.8183,-0.8197,-0.8204,-0.8217,-0.8223,-0.8214,-0.8212,-0.8222,-0.8223,-0.8238,-0.8238,-0.8238,-0.8239,0,-0.785,-0.7879,-0.7896,-0.7934,-0.7944,-0.795,-0.7983,-0.7992,-0.8016,-0.8032,-0.8038,-0.8075,-0.8096,-0.8128,-0.816,-0.8176,-0.8186,-0.8197,-0.8176,-0.8179,-0.8172,-0.8172,-0.8145,-0.8143,-0.8185,-0.8185,-0.8184,0,-0.7835,-0.7842,-0.788,-0.7891,-0.7907,-0.7924,-0.7938,-0.7971,-0.7985,-0.8017,-0.8023,-0.8046,-0.8066,-0.8098,-0.8128,-0.8152,-0.8164,-0.8152,-0.8167,-0.8157,-0.8162,-0.8161,-0.8162,-0.8149,-0.8148,-0.8147,-0.8147,0,-0.7806,-0.782,-0.7839,-0.7862,-0.7877,-0.7897,-0.7919,-0.7926,-0.7964,-0.7977,-0.7999,-0.8014,-0.8045,-0.8068,-0.8095,-0.8115,-0.8137,-0.8142,-0.8142,-0.8132,-0.8119,-0.8125,-0.8165,-0.8142,-0.8143,-0.8143,-0.8144,-0.8144,-0.7781,-0.7788,-0.7815,-0.7834,-0.7853,-0.7873,-0.7883,-0.7907,-0.7925,-0.7952,-0.797,-0.799,-0.8018,-0.8058,-0.8076,-0.8092,-0.8102,-0.8102,-0.8102,-0.8101,-0.8097,-0.8117,-0.8098,-0.8098,-0.8098,-0.8098,-0.8098,0,-0.7752,-0.7771,-0.7788,-0.7817,-0.7831,-0.785,-0.7875,-0.7886,-0.7903,-0.7927,-0.7945,-0.7969,-0.7991,-0.8022,-0.8046,-0.8053,-0.8064,-0.8059,-0.8058,-0.8062,-0.8088,-0.8085,-0.8049,-0.8049,-0.8049,-0.8049,-0.8049,-0.8049,-0.7739,-0.7752,-0.7769,-0.7791,-0.7811,-0.7829,-0.7841,-0.7859,-0.7878,-0.7903,-0.7921,-0.794,-0.7967,-0.7993,-0.8014,-0.8023,-0.803,-0.8021,-0.8033,-0.8056,-0.8061,-0.8065,-0.8062,-0.8023,-0.8022,-0.8006,-0.8006,-0.8006]}]]